Zurück zum Katalog

STARLINK-5657

AktivKommunikationVLEO
NORAD 55342·PAYLOAD·🇺🇸 United States

Gestartet Jan 26, 2023 von Cape Canaveral Space Force Station

Loading…

Nächste Überflüge (nächste 24 Stunden)

TLE

AktuellSource: CelesTrak SupGP

Epoche: Sep 14, 2026, 21:04 UTC

1 55342C 23013M   26257.87826389 -.00053603  00000+0 -19416-2 0  2579
2 55342  43.0037 315.3412 0001914 289.3817  48.7990 15.27602738    19

Verfolge STARLINK-5657 in Echtzeit mit AllMySat

Download on the App Store